FW7166 Weather Reports


Display with metric or nautical units.
time (UTC)temp
F
wind
direction
speed
MPH
gust
MPH
rain 1hr
in
rain 24hr
in
rain mn
in
humidity
%
barometer
mb
20260508144758 64 89 4.0 11.0 0.00 0.00 0.00 23 1024.8
20260508144257 64 39 3.0 11.0 0.00 0.00 0.00 23 1024.7
20260508143756 64 133 1.0 11.0 0.00 0.00 0.00 23 1024.4
20260508143255 64 130 4.0 11.0 0.00 0.00 0.00 22 1024.7
20260508142755 64 128 2.0 11.0 0.00 0.00 0.00 22 1024.8
20260508142256 64 117 4.0 11.0 0.00 0.00 0.00 23 1024.6
20260508141756 64 107 1.0 11.0 0.00 0.00 0.00 24 1024.7
20260508141254 65 110 4.0 11.0 0.00 0.00 0.00 22 1024.9
20260508140753 65 38 2.0 11.0 0.00 0.00 0.00 24 1024.5
20260508140254 65 120 1.0 11.0 0.00 0.00 0.00 23 1024.8
20260508135753 65 49 2.0 11.0 0.00 0.00 0.00 24 1024.7
20260508135252 64 86 1.0 11.0 0.00 0.00 0.00 24 1024.8
20260508134752 64 60 1.0 11.0 0.00 0.00 0.00 25 1024.8
20260508134252 64 85 2.0 11.0 0.00 0.00 0.00 23 1024.9
20260508133235 65 10 2.0 11.0 0.00 0.00 0.00 24 1025.1
20260508132217 64 25 1.0 11.0 0.00 0.00 0.00 25 1025.1
20260508131716 64 16 3.0 11.0 0.00 0.00 0.00 25 1024.9
20260508130702 64 84 2.0 11.0 0.00 0.00 0.00 25 1024.9
20260508130202 64 87 1.0 11.0 0.00 0.00 0.00 26 1024.9
20260508125701 65 58 2.0 11.0 0.00 0.00 0.00 24 1025.1
20260508125201 64 54 1.0 11.0 0.00 0.00 0.00 24 1025.2
20260508124701 64 82 1.0 11.0 0.00 0.00 0.00 26 1025.2
20260508124201 64 98 4.0 11.0 0.00 0.00 0.00 25 1025.3
20260508123701 64 116 2.0 11.0 0.00 0.00 0.00 23 1024.9
20260508123201 64 24 2.0 11.0 0.00 0.00 0.00 25 1025.1
20260508122701 64 7 1.0 11.0 0.00 0.00 0.00 25 1025.0
20260508122201 64 40 3.0 11.0 0.00 0.00 0.00 23 1025.0
20260508121701 64 56 3.0 11.0 0.00 0.00 0.00 25 1025.2
20260508120645 64 35 1.0 11.0 0.00 0.00 0.00 24 1025.0
20260508120144 63 358 2.0 11.0 0.00 0.00 0.00 24 1025.2
20260508115129 63 9 1.0 11.0 0.00 0.00 0.00 25 1025.3
20260508114628 64 72 4.0 11.0 0.00 0.00 0.00 24 1025.5
20260508114127 64 19 2.0 11.0 0.00 0.00 0.00 24 1025.1
20260508113627 64 134 1.0 11.0 0.00 0.00 0.00 23 1025.5
20260508113126 64 112 1.0 11.0 0.00 0.00 0.00 23 1025.4
20260508112626 63 56 3.0 11.0 0.00 0.00 0.00 24 1025.4
20260508112125 63 35 3.0 11.0 0.00 0.00 0.00 23 1025.5
20260508111624 63 57 2.0 11.0 0.00 0.00 0.00 23 1025.5
20260508111123 64 9 2.0 11.0 0.00 0.00 0.00 24 1025.2
20260508110623 64 85 3.0 11.0 0.00 0.00 0.00 24 1025.2
20260508110123 64 83 3.0 11.0 0.00 0.00 0.00 23 1025.7
20260508105108 63 17 1.0 11.0 0.00 0.00 0.00 24 1025.2
20260508104608 63 87 2.0 11.0 0.00 0.00 0.00 25 1025.5
20260508104107 63 117 1.0 11.0 0.00 0.00 0.00 25 1025.6
20260508102536 63 132 4.0 11.0 0.00 0.00 0.00 25 1025.4
20260508102035 63 104 4.0 11.0 0.00 0.00 0.00 26 1025.4
20260508101534 63 78 3.0 11.0 0.00 0.00 0.00 23 1025.3
20260508101033 62 98 2.0 11.0 0.00 0.00 0.00 25 1025.2
20260508100533 62 37 2.0 11.0 0.00 0.00 0.00 25 1025.3
20260508100033 62 108 2.0 11.0 0.00 0.00 0.00 25 1025.3
20260508095533 62 133 4.0 11.0 0.00 0.00 0.00 25 1025.6
20260508095033 62 99 4.0 11.0 0.00 0.00 0.00 26 1025.3
20260508094532 62 19 2.0 11.0 0.00 0.00 0.00 25 1025.3
20260508094031 62 64 2.0 11.0 0.00 0.00 0.00 26 1025.7
20260508093530 61 117 2.0 11.0 0.00 0.00 0.00 25 1025.7
20260508093030 61 90 4.0 11.0 0.00 0.00 0.00 25 1025.6
20260508092529 61 102 2.0 11.0 0.00 0.00 0.00 26 1025.3
20260508092029 61 81 2.0 11.0 0.00 0.00 0.00 25 1025.5
20260508091529 61 92 3.0 11.0 0.00 0.00 0.00 26 1025.5
20260508091028 61 66 2.0 11.0 0.00 0.00 0.00 26 1025.7
20260508090013 60 26 3.0 11.0 0.00 0.00 0.00 26 1025.5
20260508085513 60 43 3.0 11.0 0.00 0.00 0.00 26 1025.4
20260508085012 60 42 2.0 11.0 0.00 0.00 0.00 27 1025.4
20260508084511 60 61 3.0 11.0 0.00 0.00 0.00 27 1025.4
20260508084011 60 30 2.0 11.0 0.00 0.00 0.00 28 1025.4
20260508083511 60 98 2.0 11.0 0.00 0.00 0.00 26 1025.7
20260508083011 60 128 2.0 11.0 0.00 0.00 0.00 27 1025.5
20260508081955 59 105 4.0 11.0 0.00 0.00 0.00 27 1025.5
20260508080939 58 113 3.0 11.0 0.00 0.00 0.00 28 1025.4
20260508080439 58 125 3.0 11.0 0.00 0.00 0.00 27 1025.6
20260508075938 58 107 2.0 11.0 0.00 0.00 0.00 28 1025.9
20260508075437 57 131 1.0 11.0 0.00 0.00 0.00 30 1025.6
20260508074937 57 96 3.0 11.0 0.00 0.00 0.00 29 1025.5
20260508074437 57 107 3.0 11.0 0.00 0.00 0.00 30 1025.5
20260508073936 57 142 2.0 11.0 0.00 0.00 0.00 33 1025.4
20260508073435 56 101 1.0 11.0 0.00 0.00 0.00 34 1025.4
20260508072935 55 112 3.0 11.0 0.00 0.00 0.00 35 1025.4
20260508071919 54 111 5.0 11.0 0.00 0.00 0.00 37 1025.4
20260508071419 55 112 5.0 11.0 0.00 0.00 0.00 40 1025.6
20260508070402 54 66 1.0 11.0 0.00 0.00 0.00 46 1025.3
20260508065901 53 93 2.0 11.0 0.00 0.00 0.00 49 1025.1
20260508065401 53 76 2.0 11.0 0.00 0.00 0.00 49 1025.4
20260508064900 52 107 1.0 11.0 0.00 0.00 0.00 51 1025.2
20260508064359 51 97 2.0 11.0 0.00 0.00 0.00 50 1025.5
20260508063859 51 105 3.0 11.0 0.00 0.00 0.00 52 1025.3
20260508063358 51 85 3.0 11.0 0.00 0.00 0.00 52 1025.3
20260508062858 51 119 4.0 11.0 0.00 0.00 0.00 51 1025.2
20260508062358 51 99 2.0 11.0 0.00 0.00 0.00 52 1025.2
20260508061342 50 31 1.0 11.0 0.00 0.00 0.00 52 1024.8
20260508060842 50 49 1.0 11.0 0.00 0.00 0.00 54 1024.8
20260508060342 49 46 2.0 11.0 0.00 0.00 0.00 54 1024.8
20260508055842 48 40 0.0 11.0 0.00 0.00 0.00 56 1025.0
20260508055342 48 33 1.0 11.0 0.00 0.00 0.00 56 1025.0
20260508054841 47 22 0.0 11.0 0.00 0.00 0.00 57 1024.7
20260508054340 46 78 0.0 11.0 0.00 0.00 0.00 59 1025.0
20260508053840 45 77 1.0 11.0 0.00 0.00 0.00 59 1025.0
20260508053340 44 57 0.0 11.0 0.00 0.00 0.00 61 1024.7
20260508052839 43 65 1.0 11.0 0.00 0.00 0.00 61 1024.7
20260508052339 42 51 0.0 11.0 0.00 0.00 0.00 63 1024.7
20260508051838 41 50 1.0 11.0 0.00 0.00 0.00 63 1024.9
20260508051338 41 78 1.0 11.0 0.00 0.00 0.00 64 1024.7
20260508050323 39 336 0.0 11.0 0.00 0.00 0.00 66 1024.9
20260508045822 39 315 0.0 11.0 0.00 0.00 0.00 67 1024.6
20260508045322 39 315 0.0 11.0 0.00 0.00 0.00 67 1024.5
20260508044821 38 315 0.0 11.0 0.00 0.00 0.00 69 1024.7
20260508044320 37 315 0.0 11.0 0.00 0.00 0.00 70 1024.7
20260508043819 37 315 0.0 11.0 0.00 0.00 0.00 71 1024.6
20260508043318 36 315 0.0 11.0 0.00 0.00 0.00 72 1024.5
20260508042306 36 315 0.0 11.0 0.00 0.00 0.00 75 1024.4
20260508041803 35 315 0.0 11.0 0.00 0.00 0.00 76 1024.3
20260508040233 34 315 0.0 11.0 0.00 0.00 0.00 78 1024.3
20260508035218 34 315 0.0 11.0 0.00 0.00 0.00 78 1024.0
20260508034717 34 315 0.0 11.0 0.00 0.00 0.00 78 1024.3
20260508034217 34 315 0.0 11.0 0.00 0.00 0.00 78 1024.2
20260508033716 34 315 0.0 11.0 0.00 0.00 0.00 78 1024.4
20260508033216 33 315 0.0 11.0 0.00 0.00 0.00 78 1024.1
20260508032716 33 315 0.0 11.0 0.00 0.00 0.00 78 1024.0
20260508031701 34 315 0.0 11.0 0.00 0.00 0.00 77 1024.4
20260508031201 34 315 0.0 11.0 0.00 0.00 0.00 77 1023.8
20260508030701 34 315 0.0 11.0 0.00 0.00 0.00 76 1024.1
20260508030201 34 315 0.0 11.0 0.00 0.00 0.00 76 1023.9
20260508025701 34 315 0.0 11.0 0.00 0.00 0.00 74 1023.9
20260508025201 34 315 0.0 11.0 0.00 0.00 0.00 74 1023.9
20260508024700 34 315 0.0 11.0 0.00 0.00 0.00 73 1023.8
20260508022612 35 315 0.0 11.0 0.00 0.00 0.00 72 1023.8
20260508022112 35 315 0.0 11.0 0.00 0.00 0.00 71 1023.6
20260508021612 35 315 0.0 11.0 0.00 0.00 0.00 71 1023.3
20260508021112 35 315 0.0 11.0 0.00 0.00 0.00 71 1023.2
20260508020057 36 315 0.0 11.0 0.00 0.00 0.00 70 1023.3
20260508015556 36 315 0.0 11.0 0.00 0.00 0.00 70 1023.4
20260508015056 36 315 0.0 11.0 0.00 0.00 0.00 70 1023.2
20260508014556 36 315 0.0 11.0 0.00 0.00 0.00 70 1023.4
20260508014055 36 315 0.0 11.0 0.00 0.00 0.00 70 1023.2
20260508013555 36 315 0.0 11.0 0.00 0.00 0.00 69 1023.0
20260508013055 37 315 0.0 11.0 0.00 0.00 0.00 69 1023.1
20260508012554 37 315 0.0 11.0 0.00 0.00 0.00 69 1023.1
20260508012053 37 315 0.0 11.0 0.00 0.00 0.00 69 1023.3
20260508011553 37 315 0.0 11.0 0.00 0.00 0.00 68 1023.4
20260508011053 38 315 0.0 11.0 0.00 0.00 0.00 67 1023.1
20260508010553 38 315 0.0 11.0 0.00 0.00 0.00 67 1023.2
20260508010052 38 315 0.0 11.0 0.00 0.00 0.00 66 1023.2
20260508005037 38 315 0.0 11.0 0.00 0.00 0.00 65 1022.9
20260508004537 39 315 0.0 11.0 0.00 0.00 0.00 65 1023.0
20260508003522 39 315 0.0 11.0 0.00 0.00 0.00 64 1022.6
20260508003022 39 315 0.0 11.0 0.00 0.00 0.00 64 1023.2
20260508002521 39 315 0.0 11.0 0.00 0.00 0.00 63 1022.7
20260508002021 39 315 0.0 11.0 0.00 0.00 0.00 63 1022.7
20260508001520 39 315 0.0 11.0 0.00 0.00 0.00 63 1022.7
20260508001019 40 315 0.0 11.0 0.00 0.00 0.00 62 1022.5
20260508000519 40 315 0.0 11.0 0.00 0.00 0.00 61 1022.6
20260508000018 40 315 0.0 11.0 0.00 0.00 0.00 61 1022.4
20260507235517 40 315 0.0 11.0 0.00 0.00 0.00 60 1022.5
20260507235017 40 315 0.0 11.0 0.00 0.00 0.00 60 1022.4
20260507234517 40 315 0.0 11.0 0.00 0.00 0.00 59 1022.5
20260507233500 41 315 0.0 11.0 0.00 0.00 0.00 59 1022.4
20260507233000 40 315 0.0 11.0 0.00 0.00 0.00 58 1022.0
20260507232459 41 315 0.0 11.0 0.00 0.00 0.00 58 1022.3
20260507231443 40 315 0.0 11.0 0.00 0.00 0.00 58 1021.9
20260507230943 40 315 0.0 11.0 0.00 0.00 0.00 57 1022.2
20260507230442 40 315 0.0 11.0 0.00 0.00 0.00 57 1022.1
20260507225427 41 315 0.0 11.0 0.00 0.00 0.00 58 1022.0
20260507224927 41 315 0.0 11.0 0.00 0.00 0.00 58 1021.7
20260507224427 41 315 0.0 11.0 0.00 0.00 0.00 57 1021.9
20260507223927 41 315 0.0 11.0 0.00 0.00 0.00 57 1021.7
20260507223427 42 315 0.0 11.0 0.00 0.00 0.00 56 1021.7
20260507222927 42 315 0.0 11.0 0.00 0.00 0.00 55 1021.3
20260507221910 42 315 0.0 11.0 0.00 0.00 0.00 54 1021.7
20260507221409 43 315 0.0 11.0 0.00 0.00 0.00 53 1021.7
20260507220909 44 315 0.0 11.0 0.00 0.00 0.00 52 1021.6
20260507220408 44 315 0.0 11.0 0.00 0.00 0.00 53 1021.7
20260507215908 44 315 0.0 11.0 0.00 0.00 0.00 52 1021.7
20260507215408 44 315 0.0 11.0 0.00 0.00 0.00 51 1021.5
20260507214907 45 315 0.0 11.0 0.00 0.00 0.00 50 1021.2
20260507214407 45 315 0.0 11.0 0.00 0.00 0.00 50 1021.4
20260507213906 45 315 0.0 11.0 0.00 0.00 0.00 50 1021.6
20260507213405 45 315 0.0 11.0 0.00 0.00 0.00 50 1021.5
20260507212905 46 315 0.0 11.0 0.00 0.00 0.00 50 1021.5
20260507212406 46 315 0.0 11.0 0.00 0.00 0.00 49 1021.2
20260507211905 46 315 0.0 11.0 0.00 0.00 0.00 49 1021.2
20260507211405 47 315 0.0 11.0 0.00 0.00 0.00 48 1021.2
20260507210905 47 315 0.0 11.0 0.00 0.00 0.00 47 1021.0
20260507210404 47 315 0.0 11.0 0.00 0.00 0.00 47 1021.2
20260507205904 47 315 0.0 11.0 0.00 0.00 0.00 47 1020.8
20260507204847 48 315 0.0 11.0 0.00 0.00 0.00 45 1020.8
20260507204346 48 315 0.0 11.0 0.00 0.00 0.00 45 1021.0
20260507203846 49 315 0.0 11.0 0.00 0.00 0.00 44 1020.8
20260507203345 50 315 0.0 11.0 0.00 0.00 0.00 43 1020.7
20260507202844 50 315 0.0 11.0 0.00 0.00 0.00 43 1020.5
20260507202344 51 315 0.0 11.0 0.00 0.00 0.00 41 1020.6
20260507201844 51 315 0.0 11.0 0.00 0.00 0.00 39 1020.6
20260507201343 52 315 0.0 11.0 0.00 0.00 0.00 39 1020.6
20260507200843 52 315 0.0 11.0 0.00 0.00 0.00 39 1020.6
20260507200342 52 283 0.0 11.0 0.00 0.00 0.00 38 1020.3
20260507195841 52 283 0.0 11.0 0.00 0.00 0.00 38 1020.2
20260507195341 52 283 0.0 11.0 0.00 0.00 0.00 38 1020.2
20260507194840 53 283 0.0 11.0 0.00 0.00 0.00 38 1020.1
20260507194339 53 283 0.0 11.0 0.00 0.00 0.00 39 1020.1
20260507193839 52 242 0.0 11.0 0.00 0.00 0.00 40 1020.0
20260507192307 53 249 0.0 11.0 0.00 0.00 0.00 39 1019.9
20260507191806 54 249 0.0 11.0 0.00 0.00 0.00 39 1019.6
20260507191305 54 247 0.0 11.0 0.00 0.00 0.00 38 1019.4
20260507190805 54 246 0.0 11.0 0.00 0.00 0.00 38 1019.6
20260507190305 55 215 0.0 11.0 0.00 0.00 0.00 38 1019.2
20260507185804 55 214 0.0 11.0 0.00 0.00 0.00 37 1019.3
20260507184748 56 214 0.0 11.0 0.00 0.00 0.00 35 1019.0
20260507182700 58 319 0.0 11.0 0.00 0.00 0.00 27 1018.8
20260507182200 59 319 0.0 11.0 0.00 0.00 0.00 26 1018.6
20260507181659 59 319 0.0 11.0 0.00 0.00 0.00 25 1018.9
20260507180643 59 319 0.0 11.0 0.00 0.00 0.00 25 1018.6
20260507175626 59 319 0.0 11.0 0.00 0.00 0.00 23 1018.5
20260507175127 60 319 0.0 11.0 0.00 0.00 0.00 23 1018.6
20260507174111 60 319 0.0 11.0 0.00 0.00 0.00 24 1018.3
20260507173611 60 307 1.0 11.0 0.00 0.00 0.00 23 1018.2
20260507173111 60 310 0.0 11.0 0.00 0.00 0.00 23 1018.2
20260507172609 60 310 0.0 11.0 0.00 0.00 0.00 22 1018.2
20260507172109 60 310 0.0 11.0 0.00 0.00 0.00 22 1018.4
20260507171608 61 310 0.0 11.0 0.00 0.00 0.00 22 1018.1
20260507171107 61 310 1.0 11.0 0.00 0.00 0.00 22 1018.1
20260507170606 61 310 0.0 11.0 0.00 0.00 0.00 22 1018.2
20260507170106 61 310 0.0 11.0 0.00 0.00 0.00 22 1017.8
20260507165604 62 310 1.0 11.0 0.00 0.00 0.00 21 1018.0
20260507164031 62 323 0.0 11.0 0.00 0.00 0.00 23 1017.8
20260507163531 62 324 0.0 11.0 0.00 0.00 0.00 23 1017.9
20260507163031 62 324 0.0 11.0 0.00 0.00 0.00 22 1017.9
20260507162529 62 327 1.0 11.0 0.00 0.00 0.00 23 1018.0
20260507162030 63 328 1.0 11.0 0.00 0.00 0.00 23 1018.0
20260507161528 63 313 1.0 11.0 0.00 0.00 0.00 23 1017.9
20260507161027 63 226 0.0 11.0 0.00 0.00 0.00 22 1017.8
20260507160527 63 286 0.0 11.0 0.00 0.00 0.00 23 1017.9
20260507160028 63 291 1.0 11.0 0.00 0.00 0.00 23 1017.9
20260507155527 63 296 0.0 11.0 0.00 0.00 0.00 23 1017.6
20260507154511 63 278 1.0 11.0 0.00 0.00 0.00 23 1017.7
20260507154010 62 265 1.0 11.0 0.00 0.00 0.00 22 1017.7
20260507153508 63 331 1.0 11.0 0.00 0.00 0.00 22 1017.5
20260507153009 63 239 0.0 11.0 0.00 0.00 0.00 23 1017.8
20260507152509 62 25 1.0 11.0 0.00 0.00 0.00 22 1017.6
20260507152009 62 301 1.0 11.0 0.00 0.00 0.00 24 1017.7
20260507151507 63 252 1.0 11.0 0.00 0.00 0.00 22 1017.6
20260507150452 62 322 0.0 11.0 0.00 0.00 0.00 23 1017.7
20260507145950 62 327 1.0 11.0 0.00 0.00 0.00 24 1017.5
20260507145449 62 304 2.0 11.0 0.00 0.00 0.00 23 1017.3